Weather in Smidovich

Russia / Jewish Autonomous Oblast     48°35′40″N   133°48′40″E
temp.,
°C
wind,
m/s
gust,
m/s
humid.,
%
clouds,
%
prec.,
mm/h
press.,
hPa
HPBL,
m
11 april, sun
sun1101:00+8ssw7164299 0.0 1021366
04:00+7s4945100 0.0 1020183
07:00+8s81642100 0.0 1019385
10:00+8ssw61150100 0.4 1019599
13:00+8ssw61267100 4.2 1020957
16:00+11wsw4761100 4.3 1018530
19:00+11wsw5965100 0.0 1019238
22:00+8w3377100 0.0 101925
12 april, mon
mon1201:00+6n1257100 0.9 101945
04:00+4nne1282100 3.9 1019101
07:00+4sw228093 0.7 101850
10:00+4nne1178100 1.2 1017104
13:00+7se468897 0.3 1013364
16:00+12nnw5465100 0.3 1007268
19:00+10ne3472100 0.0 1006153
22:00+12ssw101764100 0.3 1004702
13 april, tue
tue1301:00+6w4785100 0.0 1004326
04:00+3w6888100 0.1 1003404
07:000w5796100 2.8 1004338
10:000nw5794100 4.1 1005579
13:00+1wnw4587100 1.3 1005707
16:00+2wnw8946100 2.0 10041852
19:000w81056100 0.1 10051431
22:00−2w8126348 0.1 1005779
14 april, wed
wed1401:00−2w8125849 0.0 1005701
04:00−3w7116014 0.0 1006469
07:00−4w7116127 0.0 1007629
10:00−1wnw7846100 0.0 10081487
13:00+2wnw5737100 0.0 10082381
16:00+2wnw7939100 0.0 10092121
19:00+2wnw684274 0.0 1010890
22:00−1w496680 0.1 1012229
15 april, thu
thu1501:00−2w48680 0.0 1013189
04:00−2w47650 0.0 1014172
07:00−2wsw35600 0.0 1015146
10:00+3sw44350 0.0 10151186
13:00+6s33275 0.0 10141547
16:00+8se552433 0.0 10121523
19:00+7ese5932100 0.0 1010451
22:00+4e81445100 0.0 1009416